Beaufort MCAS, SC

2:39 AM EDT on March 24, 2017 (GMT -0400)
Beaufort Marine Corps Air Station

Weather History for KNBC - March, 2013

Change the Weather History Date:

Friday, March 29, 2013

  Actual Average Record
Temperature  
Mean Temperature 50 °F -  
Max Temperature 64 °F 73 °F 84 °F (1961)
Min Temperature 37 °F 53 °F 29 °F (1955)
Degree Days  
Heating Degree Days 14    
Moisture  
Dew Point 38 °F    
Average Humidity 72    
Maximum Humidity 100    
Minimum Humidity 30    
Precipitation  
Precipitation 0.00 in - - ()
Sea Level Pressure  
Sea Level Pressure 30.29 in    
Wind  
Wind Speed 3 mph (SE)    
Max Wind Speed 9 mph    
Max Gust Speed -    
Visibility 6 miles    
Events Fog    
Averages and records for this station are not official NWS values.
T = Trace of Precipitation, MM = Missing Value Source: NWS Daily Summary

Daily Weather History Graph

Daily Weather History Graph

Search for Another Location

Airport or City:

Trip Planner

Search our weather history database for the weather conditions in past years. The results will help you decide how hot, cold, wet, or windy it might be!

Date:

Astronomy

Mar. 29, 2013 Rise Set
Actual Time 7:14 AM EDT 7:40 PM EDT
Civil Twilight 6:49 AM EDT 8:05 PM EDT
Nautical Twilight 6:21 AM EDT 8:34 PM EDT
Astronomical Twilight 5:51 AM EDT 9:03 PM EDT
Moon 10:27 PM EDT (3/29) 8:32 AM EDT (3/29)
Length of Visible Light 13h 15m
Length of Day
12h 26m
Waning Gibbous, 93% of the Moon is Illuminated
Mar 29
Waning Gibbous
Apr 3
Last Quarter
Apr 10
New
Apr 18
First Quarter
Apr 25
Full

Hourly Weather History & Observations

Time (EDT) Temp. Windchill Dew Point Humidity Pressure Visibility Wind Dir Wind Speed Gust Speed Precip Events Conditions
12:56 AM 44.1 °F - 39.0 °F 82% 30.28 in 10.0 mi Calm Calm - N/A   Clear
1:56 AM 43.0 °F 41.3 °F 39.0 °F 86% 30.29 in 10.0 mi NW 3.5 mph - N/A   Clear
2:42 AM 42.8 °F - 39.2 °F 87% 30.29 in 1.8 mi Calm Calm - N/A   Clear
2:49 AM 42.8 °F - 39.2 °F 87% 30.29 in 0.5 mi Calm Calm - N/A Fog Fog
2:56 AM 39.9 °F - 39.0 °F 97% 30.29 in 0.2 mi Calm Calm - N/A Fog Fog
3:02 AM 39.2 °F - 37.4 °F 93% 30.28 in 0.8 mi Calm Calm - N/A   Clear
3:06 AM 41.0 °F - 37.4 °F 87% 30.28 in 1.2 mi Calm Calm - N/A   Clear
3:08 AM 42.8 °F - 39.2 °F 87% 30.28 in 2.5 mi Calm Calm - N/A   Clear
3:16 AM 42.8 °F - 39.2 °F 87% 30.28 in 8.0 mi Calm Calm - N/A   Clear
3:48 AM 39.2 °F - 37.4 °F 93% 30.28 in 1.5 mi Calm Calm - N/A   Partly Cloudy
4:00 AM 39.2 °F - 39.2 °F 100% 30.28 in 3.0 mi Calm Calm - N/A   Scattered Clouds
4:07 AM 39.2 °F - 39.2 °F 100% 30.28 in 0.8 mi Calm Calm - N/A   Mist
4:10 AM 41.0 °F - 39.2 °F 93% 30.28 in 0.2 mi Calm Calm - N/A Fog Fog
4:32 AM 37.4 °F 32.1 °F 35.6 °F 93% 30.28 in 0.8 mi NE 6.9 mph - N/A   Mist
4:37 AM 37.4 °F 32.8 °F 35.6 °F 93% 30.28 in 2.0 mi NE 5.8 mph - N/A   Scattered Clouds
4:56 AM 37.9 °F 33.5 °F 37.0 °F 97% 30.29 in 2.5 mi NE 5.8 mph - N/A   Clear
5:26 AM 41.0 °F - 39.2 °F 93% 30.29 in 5.0 mi Calm Calm - N/A   Clear
5:56 AM 41.0 °F - 39.0 °F 93% 30.30 in 8.0 mi Calm Calm - N/A   Clear
6:56 AM 37.0 °F 31.6 °F 35.1 °F 93% 30.32 in 5.0 mi NE 6.9 mph - N/A   Clear
7:56 AM 41.0 °F 36.4 °F 34.0 °F 76% 30.34 in 10.0 mi ENE 6.9 mph - N/A   Clear
8:56 AM 48.9 °F - 30.9 °F 50% 30.35 in 10.0 mi East 9.2 mph - N/A   Clear
9:56 AM 53.1 °F - 35.1 °F 50% 30.35 in 10.0 mi East 8.1 mph - N/A   Clear
10:56 AM 55.9 °F - 33.1 °F 42% 30.36 in 10.0 mi East 6.9 mph - N/A   Clear
11:56 AM 59.0 °F - 30.9 °F 35% 30.36 in 10.0 mi ENE 8.1 mph - N/A   Clear
12:56 PM 60.1 °F - 28.9 °F 31% 30.34 in 10.0 mi ESE 3.5 mph - N/A   Clear
1:56 PM 61.0 °F - 28.9 °F 30% 30.31 in 10.0 mi ESE 4.6 mph - N/A   Clear
2:56 PM 63.0 °F - 34.0 °F 34% 30.29 in 10.0 mi SE 5.8 mph - N/A   Partly Cloudy
3:56 PM 64.0 °F - 35.1 °F 34% 30.25 in 10.0 mi SSE 5.8 mph - N/A   Clear
4:56 PM 63.0 °F - 39.9 °F 43% 30.24 in 10.0 mi South 9.2 mph - N/A   Clear
5:56 PM 62.1 °F - 36.0 °F 38% 30.23 in 10.0 mi South 9.2 mph - N/A   Clear
6:56 PM 59.0 °F - 39.0 °F 48% 30.24 in 10.0 mi South 6.9 mph - N/A   Clear
7:56 PM 55.0 °F - 39.9 °F 57% 30.26 in 10.0 mi South 5.8 mph - N/A   Clear
8:56 PM 54.0 °F - 42.1 °F 64% 30.25 in 10.0 mi SSW 4.6 mph - N/A   Clear
9:56 PM 53.1 °F - 44.1 °F 71% 30.26 in 10.0 mi SSW 3.5 mph - N/A   Clear
10:56 PM 54.0 °F - 46.9 °F 77% 30.26 in 10.0 mi South 3.5 mph - N/A   Clear
11:56 PM 55.0 °F - 46.9 °F 74% 30.26 in 10.0 mi South 3.5 mph - N/A   Clear